CST,Max TemperatureF,Mean TemperatureF,Min TemperatureF,Max Dew PointF,MeanDew PointF,Min DewpointF,Max Humidity, Mean Humidity, Min Humidity, Max Sea Level PressureIn, Mean Sea Level PressureIn, Min Sea Level PressureIn, Max VisibilityMiles, Mean VisibilityMiles, Min VisibilityMiles, Max Wind SpeedMPH, Mean Wind SpeedMPH, Max Gust SpeedMPH,PrecipitationIn, CloudCover, Events, WindDirDegrees
2014-1-1,14,12,10,9,6,3,85,77,67,30.27,30.21,30.17,10,6,0,20,13,23,0.00,7,,30
2014-1-2,12,2,-7,5,-3,-15,79,69,61,30.47,30.37,30.24,10,10,4,16,12,20,0.00,5,,320
2014-1-3,26,8,-9,16,1,-17,78,65,54,30.45,30.12,29.73,10,10,9,28,11,36,0.00,2,,182
2014-1-4,35,25,15,27,16,7,86,72,64,30.08,29.92,29.73,10,8,1,23,15,26,0.00,7,,299
2014-1-5,15,4,-9,7,-6,-22,73,60,39,30.36,30.21,30.08,10,9,3,32,22,45,0.00,4,,337
2014-1-6,-4,-8,-13,-17,-21,-27,60,54,49,30.41,30.37,30.33,10,10,7,24,17,32,0.00,2,,279
2014-1-7,14,4,-5,0,-7,-17,78,63,53,30.34,30.23,30.12,10,10,10,12,7,,0.00,4,,163
2014-1-8,12,8,3,1,-2,-4,78,65,52,30.48,30.40,30.25,10,10,10,12,5,,0.00,4,,24
2014-1-9,24,14,3,23,10,-4,93,77,67,30.46,30.27,30.09,10,8,2,12,8,,0.00,7,Snow,124
2014-1-10,37,32,28,36,32,27,100,96,93,30.05,29.72,29.52,10,2,0,16,10,21,0.00,8,Fog,168
2014-1-11,37,32,26,32,28,23,93,83,70,29.87,29.69,29.52,10,9,4,22,12,30,0.00,4,,279
2014-1-12,50,37,24,34,29,23,93,71,50,29.86,29.64,29.50,10,10,10,24,10,33,0.00,0,,192
2014-1-13,39,34,30,32,29,25,93,79,60,29.81,29.71,29.58,10,10,10,25,8,28,0.00,4,,261
2014-1-14,37,28,19,34,21,10,93,72,59,30.10,29.86,29.62,10,10,2,33,17,44,0.02,6,Rain-Snow,283
2014-1-15,28,19,10,16,8,3,79,65,51,30.20,30.06,29.74,10,10,10,20,14,26,0.00,5,Snow,264
2014-1-16,39,24,8,30,19,-2,93,69,52,29.91,29.69,29.59,10,8,0,34,16,40,0.00,7,Rain-Snow,277
2014-1-17,15,9,3,7,2,-4,79,68,61,30.06,30.00,29.90,10,10,4,24,15,26,0.00,5,Snow,284
2014-1-18,37,22,6,32,15,0,93,75,46,30.01,29.77,29.55,10,9,2,26,11,31,0.00,6,Rain-Snow,238
2014-1-19,48,31,14,30,22,10,86,67,46,29.99,29.77,29.61,10,10,10,23,12,29,0.00,1,,240
2014-1-20,41,28,15,32,28,10,93,80,65,30.19,29.92,29.77,10,9,1,31,12,41,0.00,3,Rain-Snow,308
2014-1-21,14,6,-2,10,-5,-13,86,60,51,30.44,30.31,30.14,10,9,1,30,17,38,0.00,3,Rain-Snow,321
2014-1-22,19,8,-2,10,2,-13,73,64,53,30.43,30.12,29.98,10,9,3,29,15,37,0.00,7,Snow,291
2014-1-23,8,2,-5,-6,-11,-17,66,59,51,30.72,30.63,30.44,10,10,10,21,15,29,0.00,1,,295
2014-1-24,39,18,0,27,5,-9,66,49,38,30.56,29.99,29.57,10,10,10,32,16,39,0.00,5,Snow,221
2014-1-25,37,26,15,34,8,-6,87,51,28,29.95,29.81,29.58,10,10,3,31,18,43,0.00,4,Rain,302
2014-1-26,46,26,5,32,17,-9,86,56,43,30.13,29.62,29.43,10,10,1,37,19,51,0.00,6,Rain-Snow,281
2014-1-27,5,0,-4,-8,-13,-18,71,52,40,30.50,30.38,30.13,10,10,10,33,19,41,0.00,3,Snow,314
2014-1-28,17,6,-5,-6,-9,-15,71,54,32,30.49,30.38,30.27,10,10,10,17,6,23,0.00,0,,264
2014-1-29,35,18,1,10,1,-9,72,47,26,30.26,30.09,29.83,10,10,10,22,10,29,0.00,0,,206
2014-1-30,39,27,15,27,14,7,80,56,33,30.04,29.76,29.58,10,10,0,34,19,48,0.00,3,Snow,236
2014-1-31,15,12,8,9,4,-2,79,67,57,30.20,30.11,30.00,10,8,2,20,10,,0.00,5,Snow,18